Weather Roundup
Issued by NWS Chicago, IL

Home | Current Version | Previous Version | Graphics & Text | Print | Product List | Glossary On
Versions: 1 2 3 4 5 6 7 8 9 10 11 12 13 14 15 16 17 18 19 20 21 22 23 24 25 26 27 28 29 30 31 32 33 34 35 36 37 38 39 40 41 42 43 44 45 46 47 48 49 50
000
NZUS59 KLOT 191406
HRRLOT

CHICAGO AREA WEATHER ROUNDUP
NATIONAL WEATHER SERVICE CHICAGO/ROMEOVILLE IL
900 AM CDT FRI SEP 19 2014

NOTE: "FAIR" INDICATES FEW OR NO CLOUDS BELOW 12,000 FEET WITH NO
SIGNIFICANT WEATHER AND/OR OBSTRUCTIONS TO VISIBILITY.

* THESE STATIONS ARE NOT UNDER NWS QUALITY CONTROL. THEY ALSO MAY NOT
  REPORT WEATHER SUCH AS PRECIPITATION OR FOG.

ILZ005-006-012>014-019>023-191500-
NORTHEAST ILLINOIS

CITY           SKY/WX    TMP DP  RH WIND       PRES   REMARKS
OHARE          MOSUNNY   60  52  74 S7        30.16R
MIDWAY         MOSUNNY   62  51  67 S8        30.17R
AURORA         SUNNY     59  52  77 S12       30.16R
LANSING*       SUNNY     58  51  77 S8        30.18R
JOLIET*        SUNNY     58  51  77 SE6       30.17R
WAUKEGAN       SUNNY     60  53  77 SE8       30.16R
DUPAGE AIRPORT SUNNY     60  52  74 S9        30.16R
WHEELING       SUNNY     61  53  75 S8        30.18R
KANKAKEE*      SUNNY     58  53  84 SE8       30.18R
MORRIS*        SUNNY     60  56  87 S5        30.16R
LEWIS AIRPORT* SUNNY     58  52  80 S9        30.17R
NORTHERLY IS     N/A     61  50  67 SE7         N/A
$$

WIZ051-052-058>065-066-070>072-191500-
SOUTHEAST WISCONSIN

CITY           SKY/WX    TMP DP  RH WIND       PRES   REMARKS
MILWAUKEE      PTSUNNY   60  55  83 S9        30.16S
KENOSHA*       SUNNY     61  54  77 S9        30.16S
RACINE*        SUNNY     62  55  77 S12       30.18R
BURLINGTON     MOSUNNY   55  55 100 CALM      30.15S
WAUKESHA       SUNNY     55  54  94 S6        30.16S
WEST BEND      MOSUNNY   55  54  94 S5        30.15F FOG
$$

INZ001>003-010>013-019-020-191500-
NORTHWEST INDIANA

CITY           SKY/WX    TMP DP  RH WIND       PRES   REMARKS
GARY*          MOSUNNY   61  52  72 SE8       30.18R
MICHIGAN CITY* NOT AVBL
RENSSELAER*    NOT AVBL
VALPARAISO     SUNNY     58  52  80 SE8       30.19F
$$

LMZ740>746-191500-
SOUTHERN LAKE MICHIGAN

STATION/POSITION TIME  SKY/WX   TEMP WIND        PRES    VSBY
                                AIR  DIR/SP/G
                 (UTC)          (F)  (DEG/KT/KT) (MB)    (MI)
HARRISON CRIB    1300            59  160/ 17/ 21   N/A
BURNHAM HARBOR   1400            62  130/  6/ 12   N/A
CALUMET HARBOR   1400            60  170/  6/ 10 1020.5R
BURNS HARBOR     NOT AVBL
MICHIGAN CITY    1400            58  120/ 13/ 16   N/A
$$

ABBREVIATIONS USED IN REMARKS
   TC - TEMPERATURE IN CELSIUS
  WCI - WIND CHILL INDEX
   HX - HEAT INDEX
  VSB - VISIBILITY
$$


USA.gov is the U.S. government's official web portal to all federal, state and local government web resources and services.